Location: Bathurst
(33.4193°S, 149.5775°E)
Time: 08:32:19
(UTC+10:00)

Vanguard 1 Rocket - Pass Details

Date: 14 June 2021
Orbit: 650 x 4226 km, 34.3° (Epoch: 02 August)

Event Time Altitude Azimuth Distance (km) Brightness Sun altitude
Rises 11:11:15 0° 289° (WNW) 7,167 12.0 32.0°
Reaches altitude 10° 11:16:49 10° 289° (WNW) 5,599 11.6 32.3°
Maximum altitude 11:31:28 82° 14° (NNE) 1,637 9.4 32.9°
Drops below altitude 10° 11:38:43 10° 100° (E) 2,940 10.1 33.0°
Sets 11:40:46 0° 101° (E) 3,657 10.5 33.1°
